Flag for U.S.A. Weather past 2 weeks in Oxnard, California, U.S.A.

Now
67 °F

Passing clouds.


Feels Like: 67 °F
Forecast: 58 / 70 °F
Wind: 13 mph from West

Location: Oxnard Airport

Current Time: Jun 2, 2015 at 2:38:42 PM

Latest Report: Jun 2, 2015 at 1:51 PM


Visibility: 10 mi

Pressure: 29.98 "Hg

Humidity: 66%

Dew point: 55 °F

Location of OxnardLocation

Historic Weather in Oxnard — Graph

°F

Oxnard temperature yesterday

Maximum temperature yesterday: 67 °F (at 2:51 PM)
Minimum temperature yesterday: 58 °F (at 12:51 AM)
Average temperature yesterday: 61 °F

Past Weeks' High & Low Weather Summary

 TemperatureHumidityPressure
High69 °F (May 22, 2:51 PM)93% (May 31, 1:51 AM)30.09 "Hg (May 31, 1:51 AM)
Low53 °F (May 19, 4:51 AM)51% (May 18, 1:51 PM)29.88 "Hg (May 30, 6:51 PM)
Average61 °F74%29.98 "Hg
* Reported May 18 12:51 PM — Jun 2 12:51 PM, Oxnard, Weather by CustomWeather, © 2015

Note: Actual official high and low records may vary slightly from our data, if they occured in-between our weather recording intervals... More about our weather records

Advertising

Oxnard weather history for previous 24 hours

 ConditionsComfort  
Time TempWeatherWind HumidityBarometerVisibility
12:51 PM
Tue, Jun 2
67 °FScattered clouds.10 mph68%29.99 "Hg10 mi
11:51 AM67 °FPassing clouds.10 mph68%29.99 "Hg10 mi
10:51 AM65 °FPassing clouds.8 mph70%29.99 "Hg9 mi
9:51 AM64 °FPassing clouds.8 mph73%29.98 "Hg10 mi
8:51 AM62 °FLow clouds.3 mph80%29.99 "Hg8 mi
7:51 AM61 °FPartly sunny.7 mph81%29.98 "Hg8 mi
6:58 AM59 °FPartly sunny.3 mph78%29.98 "Hg8 mi
5:51 AM56 °FClear.5 mph87%29.97 "Hg7 mi
4:51 AM57 °FPassing clouds.5 mph83%29.97 "Hg8 mi
3:51 AM58 °FClear.5 mph87%29.96 "Hg7 mi
2:51 AM59 °FPassing clouds.6 mph87%29.96 "Hg8 mi
2:01 AM59 °FPassing clouds.3 mph87%29.97 "Hg9 mi
12:51 AM60 °FPassing clouds.5 mph83%29.97 "Hg9 mi
11:51 PM
Mon, Jun 1
60 °FClear.No wind86%29.98 "Hg9 mi
10:51 PM60 °FClear.5 mph83%29.98 "Hg10 mi
9:51 PM62 °FClear.5 mph80%29.99 "Hg10 mi
7:51 PM63 °FSunny.3 mph75%29.97 "Hg10 mi
6:51 PM63 °FSunny.8 mph75%29.97 "Hg10 mi
5:51 PM64 °FSunny.6 mph70%29.97 "Hg10 mi
4:51 PM65 °FSunny.8 mph68%29.98 "Hg9 mi
3:51 PM64 °FPassing clouds.12 mph68%29.99 "Hg10 mi
2:51 PM67 °FSunny.13 mph61%30.00 "Hg10 mi
Weather by CustomWeather, © 2015

See weather overviewHow to use our weather pages